Onweer radar Meer informatie blitzortung!


Regen radar Meer informatie rain snow radar


Bezoek onze andere website:

Template documentation
and downloads

And another site



15 daagse weersverwachting Molde (NO)

  • Overzicht
  • Per uur
  • 15 dagen
  • Extra
  • Vergelijk
  • Kaarten
  • Dagkaart
  • Meer »
  • Info
  • Statistieken
  • Directe link
    Temp 6h Neerslag Wind  
 07:24     19:24    Daglengte: 12:00 Vandaag
14:00
13°
5.0 mm
8
20:00
12°
6.5 mm
10
 07:26     19:20    Daglengte: 11:54 Morgen
02:00
11°
7.2 mm
10
08:00
10°
9.3 mm
6
14:00
11°
4.6 mm
5
20:00
11°
 
3
 07:29     19:17    Daglengte: 11:48 Zondag 26 Sep
02:00
13°
5.1 mm
2
08:00
13°
 
3
14:00
17°
 
2
20:00
13°
7.7 mm
1
 07:32     19:14    Daglengte: 11:42 Maandag 27 Sep
02:00
14°
 
3
08:00
16°
 
5
Locatie info
Region: Møre og Romsdal
Latitude: 62.7375°N
Longitude: 7.1591°E
3 masl
Temp/Neerslag /Baro Onweer/Dauwpunt
    Temp Baro 1h Neerslag Dauwpunt Wind UV Bewolking  
 07:24     19:24    Daglengte: 12:00 Vandaag
14:00
13°
987.4 hPa 5.0 mm
49%
9.9°
8
Windvlaag: 7.3 m/s
70%
15:00
13°
987.7 hPa 1.8 mm
82%
9.7°
9
Windvlaag: 7.8 m/s
61%
16:00
13°
988.1 hPa 1.6 mm
82%
9.9°
9
Windvlaag: 8 m/s
45%
17:00
12°
988.3 hPa 1.6 mm
82%
9.8°
10
Windvlaag: 7.7 m/s
49%
18:00
12°
988.6 hPa 1.5 mm
82%
9.5°
10
Windvlaag: 8.1 m/s
36%
19:00
12°
989.3 hPa
77%
8.9°
10
Windvlaag: 8 m/s
19%
20:00
12°
989.5 hPa
63%
8.9°
10
Windvlaag: 9.1 m/s
68%
21:00
11°
990.1 hPa
69%
8.6°
11
Windvlaag: 8.5 m/s
24%
22:00
11°
991.0 hPa
71%
8.7°
11
Windvlaag: 8.5 m/s
49%
23:00
11°
992.0 hPa
72%
9.1°
11
Windvlaag: 11.5 m/s
69%
 07:26     19:20    Daglengte: 11:54 Morgen
00:00
12°
993.2 hPa 1.8 mm
77%
9.6°
12
Windvlaag: 11.9 m/s
69%
01:00
11°
995.0 hPa 2.4 mm
82%
9.1°
11
Windvlaag: 10 m/s
64%
02:00
11°
996.8 hPa 3.0 mm
82%
8.5°
10
Windvlaag: 9 m/s
65%
03:00
11°
998.5 hPa 2.4 mm
82%
8.3°
10
Windvlaag: 2.3 m/s
57%
04:00
11°
1000.1 hPa 2.3 mm
82%
7.6°
9
Windvlaag: 0 m/s
57%
05:00
10°
1001.5 hPa 2.4 mm
82%
7.5°
8
Windvlaag: -0.8 m/s
65%
06:00
10°
1002.7 hPa
82%
7.4°
8
Windvlaag: -1.6 m/s
48%
07:00
10°
1003.7 hPa 2.1 mm
81%
6.9°
6
Windvlaag: -0.5 m/s
20%
08:00
10°
Voelt als: 7.3°
1004.8 hPa
81%
6.7°
6
Windvlaag: 0.3 m/s
65%
09:00
10°
Voelt als: 7.4°
1005.7 hPa 2.2 mm
76%
6.4°
5
Windvlaag: 0.6 m/s
64%
10:00
10°
Voelt als: 7.4°
1006.5 hPa 2.4 mm
74%
5.5°
5
Windvlaag: 2.8 m/s
65%
11:00
10°
Voelt als: 7.1°
1007.2 hPa
64%
4.9°
5
Windvlaag: 2.5 m/s
29%
12:00
10°
1007.7 hPa
22%
5.5°
6
Windvlaag: 4.2 m/s
34%
13:00
10°
1008.4 hPa
21%
5.7°
6
Windvlaag: 4.4 m/s
38%
14:00
11°
1009.0 hPa
16%
5.6°
5
Windvlaag: 4 m/s
39%
15:00
11°
1009.3 hPa
15%
5.3°
5
Windvlaag: 3.7 m/s
41%
16:00
12°
1009.6 hPa
14%
4.6°
4
Windvlaag: 2.4 m/s
57%
17:00
12°
1010.0 hPa
14%
4.4°
3
Windvlaag: 2.7 m/s
71%
18:00
11°
1010.2 hPa
17%
7.0°
2
Windvlaag: 1.8 m/s
77%
19:00
11°
1010.1 hPa
82%
7.0°
2
Windvlaag: 0.1 m/s
78%
20:00
11°
1009.9 hPa
82%
7.3°
3
Windvlaag: 1.2 m/s
77%
21:00
11°
1009.4 hPa 2.4 mm
82%
7.0°
4
Windvlaag: 0 m/s
86%
22:00
11°
1008.7 hPa 2.7 mm
82%
7.0°
5
Windvlaag: 0.6 m/s
86%
23:00
12°
1008.6 hPa
82%
7.7°
5
Windvlaag: 0.5 m/s
71%
 07:29     19:17    Daglengte: 11:48 Zondag 26 Sep
00:00
13°
1008.7 hPa
72%
8.2°
3
Windvlaag: -0.4 m/s
73%
01:00
13°
1008.8 hPa
19%
8.7°
2
Windvlaag: 1.5 m/s
76%
02:00
13°
1009.0 hPa
20%
8.7°
2
Windvlaag: 2 m/s
83%
03:00
14°
1009.1 hPa
70%
8.4°
3
Windvlaag: 1.3 m/s
72%
04:00
14°
1009.6 hPa
63%
7.0°
3
Windvlaag: 1.2 m/s
72%
05:00
14°
1009.7 hPa
26%
7.7°
2
Windvlaag: 1 m/s
79%
06:00
14°
1009.6 hPa
16%
7.5°
2
Windvlaag: 1.7 m/s
80%
07:00
13°
1009.8 hPa
15%
8.2°
2
Windvlaag: 3.6 m/s
71%
08:00
13°
1010.0 hPa
15%
8.3°
3
Windvlaag: 1.5 m/s
73%
09:00
14°
1010.4 hPa
14%
7.7°
2
Windvlaag: 1.4 m/s
76%
10:00
15°
1010.6 hPa
14%
7.2°
2
Windvlaag: -0.3 m/s
60%
11:00
15°
1011.1 hPa
21%
7.2°
2
Windvlaag: 0.8 m/s
58%
12:00
16°
1011.0 hPa
21%
6.7°
2
Windvlaag: 1.3 m/s
77%
13:00
17°
1010.7 hPa
21%
6.4°
2
Windvlaag: 1.2 m/s
59%
14:00
17°
1010.5 hPa
23%
6.4°
2
Windvlaag: 1.3 m/s
35%
15:00
17°
1010.4 hPa
94%
6.4°
1
Windvlaag: 0.6 m/s
72%
16:00
16°
1010.4 hPa 3.8 mm
100%
7.6°
1
Windvlaag: 0.4 m/s
73%
17:00
15°
1010.4 hPa 3.9 mm
100%
8.4°
3
Windvlaag: 0.5 m/s
72%
18:00
15°
1010.4 hPa
93%
9.4°
2
Windvlaag: 0.2 m/s
72%
19:00
14°
1010.8 hPa
43%
9.7°
2
Windvlaag: 0.7 m/s
74%
20:00
13°
1010.9 hPa
31%
9.8°
1
Windvlaag: 0.1 m/s
60%
21:00
13°
1011.0 hPa
26%
9.1°
1
Windvlaag: 1.6 m/s
44%
22:00
13°
1011.0 hPa
23%
8.0°
1
Windvlaag: 1.9 m/s
54%
23:00
14°
1010.8 hPa
75%
7.9°
1
Windvlaag: 1.7 m/s
44%
 07:32     19:14    Daglengte: 11:42 Maandag 27 Sep
00:00
14°
1010.6 hPa
21%
8.0°
2
Windvlaag: 1.8 m/s
40%
01:00
14°
1010.6 hPa
21%
8.2°
3
Windvlaag: 1.3 m/s
55%
02:00
14°
1010.6 hPa
21%
7.1°
3
Windvlaag: 1 m/s
47%
03:00
14°
1010.5 hPa
21%
7.4°
4
Windvlaag: 0.9 m/s
86%
04:00
15°
1010.3 hPa
21%
7.1°
4
Windvlaag: 0.1 m/s
81%
05:00
15°
1010.0 hPa
21%
7.4°
4
Windvlaag: 0.6 m/s
75%
06:00
15°
1009.7 hPa
21%
8.0°
4
Windvlaag: 0.8 m/s
58%
07:00
15°
1009.4 hPa
21%
7.8°
5
Windvlaag: 1.1 m/s
38%
08:00
16°
1009.3 hPa
21%
7.7°
5
Windvlaag: 2.3 m/s
34%
09:00
16°
1008.6 hPa
21%
7.7°
3
Windvlaag: 12.5 m/s
24%
10:00
17°
1008.4 hPa
21%
7.1°
3
Windvlaag: 11.3 m/s
13%
11:00
18°
1008.2 hPa
21%
6.7°
3
Windvlaag: 10.8 m/s
19%
12:00
19°
1007.9 hPa
21%
7.3°
3
Windvlaag: 9.6 m/s
20%
13:00
19°
1007.3 hPa
21%
8.4°
4
Windvlaag: 9.7 m/s
20%
Temp/Neerslag /Baro Onweer/Dauwpunt
    Temp Baro Neerslag Dauwpunt Wind Bewolking  
 07:24     19:24    Daglengte: 12:00 Vandaag
14:00
13°
987.4 hPa 5.0 mm 9.9°
8
70%
17:00
12°
988.3 hPa 5.0 mm 9.8°
10
49%
20:00
12°
989.5 hPa 1.5 mm 8.9°
10
68%
23:00
11°
992.0 hPa   9.1°
11
69%
 07:26     19:20    Daglengte: 11:54 Morgen
02:00
11°
996.8 hPa 7.2 mm 8.5°
10
65%
05:00
10°
1001.5 hPa 7.2 mm 7.5°
8
65%
08:00
10°
Voelt als: 7.3°
1004.8 hPa 2.1 mm 6.7°
6
65%
11:00
10°
Voelt als: 7.1°
1007.2 hPa 4.6 mm 4.9°
5
29%
14:00
11°
1009.0 hPa   5.6°
5
39%
17:00
12°
1010.0 hPa   4.4°
3
71%
20:00
11°
1009.9 hPa   7.3°
3
77%
23:00
12°
1008.6 hPa 5.1 mm 7.7°
5
71%
 07:29     19:17    Daglengte: 11:48 Zondag 26 Sep
02:00
13°
1009.0 hPa   8.7°
2
83%
05:00
14°
1009.7 hPa   7.7°
2
79%
08:00
13°
1010.0 hPa   8.3°
3
73%
11:00
15°
1011.1 hPa   7.2°
2
58%
14:00
17°
1010.5 hPa   6.4°
2
35%
17:00
15°
1010.4 hPa 7.7 mm 8.4°
3
72%
20:00
13°
1010.9 hPa   9.8°
1
60%
23:00
14°
1010.8 hPa   7.9°
1
44%
 07:32     19:14    Daglengte: 11:42 Maandag 27 Sep
02:00
14°
1010.6 hPa   7.1°
3
47%
05:00
15°
1010.0 hPa   7.4°
4
75%
08:00
16°
1009.3 hPa   7.7°
5
34%
11:00
18°
1008.2 hPa   6.7°
3
19%
14:00
19°
1007.0 hPa   9.8°
3
20%
17:00
16°
1007.3 hPa 12.7 mm 10.0°
5
1%
20:00
13°
1007.1 hPa 12.7 mm 9.5°
6
1%
23:00
12°
1010.7 hPa 12.8 mm 10.4°
3
1%
 07:35     19:10    Daglengte: 11:35 Dinsdag 28 Sep
02:00
12°
1014.2 hPa 16.4 mm 11.0°
1
1%
05:00
11°
1017.1 hPa 17.9 mm 9.2°
1
1%
08:00
10°
1019.0 hPa 17.9 mm 8.7°
3
1%
11:00
13°
1021.0 hPa 17.9 mm 9.0°
2
0%
14:00
14°
1021.6 hPa 17.9 mm 8.1°
1
0%
17:00
14°
1021.6 hPa 17.9 mm 8.4°
2
1%
20:00
12°
1021.4 hPa 17.9 mm 8.7°
1
1%
23:00
11°
1020.9 hPa 17.9 mm 7.6°
2
0%
 07:37     19:07    Daglengte: 11:30 Woensdag 29 Sep
02:00
11°
1019.4 hPa 17.9 mm 6.5°
2
0%
05:00
10°
1017.9 hPa 17.9 mm 6.0°
3
1%
08:00
Voelt als: 7.7°
1017.4 hPa 17.9 mm 5.2°
3
1%
11:00
12°
1016.9 hPa 17.9 mm 5.5°
3
1%
14:00
14°
1016.3 hPa 17.9 mm 4.8°
1
1%
17:00
14°
1015.4 hPa 17.9 mm 6.5°
2
1%
20:00
12°
1014.9 hPa 17.9 mm 5.9°
2
1%
23:00
12°
1013.9 hPa 17.9 mm 6.0°
1
1%
 07:40     19:04    Daglengte: 11:24 Donderdag 30 Sep
02:00
12°
1012.1 hPa 17.9 mm 6.1°
2
1%
05:00
11°
1010.8 hPa 17.9 mm 7.0°
2
1%
08:00
11°
1010.5 hPa 17.9 mm 7.8°
2
1%
11:00
12°
1011.8 hPa 17.9 mm 7.9°
1
1%
14:00
12°
1012.9 hPa 17.9 mm 7.5°
3
1%
17:00
10°
1013.4 hPa 18.1 mm 8.3°
3
1%
20:00
Voelt als: 9.4°
1013.3 hPa 18.2 mm 7.7°
0
1%
23:00
Voelt als: 7.8°
1012.7 hPa 18.3 mm 6.7°
2
0%
 07:43     19:00    Daglengte: 11:17 Vrijdag 01 Okt
02:00
Voelt als: 7.8°
1011.4 hPa 18.3 mm 5.7°
1
0%
05:00
Voelt als: 7.4°
1010.4 hPa 18.3 mm 4.1°
2
1%
08:00
Voelt als: 7.2°
1009.9 hPa 18.3 mm 3.4°
2
1%
11:00
10°
1009.8 hPa   3.0°
1
1%
14:00
11°
1009.3 hPa 36.5 mm 3.6°
1
0%
20:00
1008.4 hPa 36.5 mm 6.2°
1
1%
 07:45     18:57    Daglengte: 11:12 Zaterdag 02 Okt
02:00
1007.3 hPa 36.5 mm 5.7°
1
1%
08:00
Voelt als: 6.7°
1006.1 hPa 36.5 mm 3.3°
2
0%
14:00
11°
1005.9 hPa 36.5 mm 1.7°
1
0%
20:00
Voelt als: 8.1°
1004.6 hPa 36.5 mm 4.9°
2
0%
 07:48     18:54    Daglengte: 11:06 Zondag 03 Okt
02:00
Voelt als: 7.7°
1003.7 hPa 36.5 mm 3.5°
3
1%
08:00
Voelt als: 6.8°
998.2 hPa 36.5 mm 2.7°
4
1%
14:00
10°
Voelt als: 7.4°
986.9 hPa 38.7 mm 6.2°
4
1%
20:00
11°
990.2 hPa 41.0 mm 7.6°
4
1%
 07:51     18:50    Daglengte: 10:59 Maandag 04 Okt
02:00
Voelt als: 5.9°
994.8 hPa 41.8 mm 5.9°
7
1%
08:00
Voelt als: 7.9°
1010.2 hPa 1.1 mm 6.1°
2
82%
14:00
12°
1011.2 hPa 0.8 mm 6.8°
1
79%
20:00
10°
1012.0 hPa 0.9 mm 7.0°
2
84%
 07:54     18:47    Daglengte: 10:53 Dinsdag 05 Okt
02:00
10°
Voelt als: 8.2°
1012.7 hPa 1.1 mm 6.8°
3
78%
08:00
Voelt als: 8.0°
1013.3 hPa 1.1 mm 6.8°
3
84%
14:00
11°
1014.5 hPa 1.1 mm 7.4°
3
83%
20:00
10°
Voelt als: 9.0°
1015.3 hPa 1.4 mm 7.3°
2
80%
 07:56     18:44    Daglengte: 10:48 Woensdag 06 Okt
02:00
Voelt als: 7.9°
1015.6 hPa 1.6 mm 6.5°
2
76%
08:00
Voelt als: 7.7°
1015.2 hPa 1.3 mm 5.8°
3
79%
14:00
11°
1014.5 hPa 1.3 mm 6.8°
2
81%
20:00
10°
1013.8 hPa 0.7 mm 7.0°
2
75%
 07:59     18:40    Daglengte: 10:41 Donderdag 07 Okt
02:00
10°
Voelt als: 8.3°
1012.3 hPa 1.5 mm 6.5°
3
78%
08:00
Voelt als: 8.1°
1010.8 hPa 1.8 mm 6.3°
2
83%
14:00
11°
1010.4 hPa 2.1 mm 7.0°
3
88%
20:00
Voelt als: 8.8°
1010.6 hPa 2.0 mm 6.7°
2
84%
 08:02     18:37    Daglengte: 10:35 Vrijdag 08 Okt
02:00
Voelt als: 7.6°
1011.0 hPa 1.6 mm 6.0°
2
83%
08:00
Voelt als: 7.1°
1010.3 hPa 2.1 mm 5.8°
2
89%
14:00
10°
1010.9 hPa 1.3 mm 6.3°
3
88%
20:00
Voelt als: 8.4°
1011.6 hPa 2.2 mm 5.9°
1
79%
 08:05     18:34    Daglengte: 10:29 Zaterdag 09 Okt
02:00
Voelt als: 7.4°
1011.9 hPa 1.2 mm 5.0°
2
67%
08:00
Voelt als: 7.0°
1011.4 hPa 0.7 mm 4.4°
2
71%
  CAPE Lifted Index Hail Supercell Tornado SRH 3km CL BTM PRES CL TOP PRES Swiss DWD icon SMHI TS
 07:24     19:24    Daglengte: 12:00 Vandaag
14:00 0 J/kg 4.7 K 0 % 0 % 0 % 0 m²/s² 0 0 7.28 80
15:00 122 J/kg 4.5 K 0 % 0 % 0 % 0 m²/s² 0 0 10.92 80
16:00 135 J/kg 4.3 K 0 % 0 % 0 % 0 m²/s² 0 0 10.72 3
17:00 102 J/kg 5.1 K 0 % 0 % 0 % 0 m²/s² 0 0 10.23 61
18:00 87 J/kg 5.7 K 0 % 0 % 0 % 0 m²/s² 0 0 9.57 3
19:00 60 J/kg 6.0 K 0 % 0 % 0 % 0 m²/s² 0 0 9.66 80
20:00 48 J/kg 5.9 K 0 % 0 % 0 % 0 m²/s² 0 0 9.47 3
21:00 30 J/kg 6.2 K 0 % 0 % 0 % 0 m²/s² 0 0 9.77 3
22:00 30 J/kg 6.5 K 0 % 0 % 0 % 0 m²/s² 0 0 10.34 80
23:00 24 J/kg 6.0 K 0 % 0 % 0 % 0 m²/s² 0 0 9.75 3
 07:26     19:20    Daglengte: 11:54 Morgen
00:00 63 J/kg 5.4 K 0 % 0 % 0 % 0 m²/s² 0 0 8.94 3
01:00 81 J/kg 7.1 K 0 % 0 % 0 % 0 m²/s² 0 0 10.52 80
02:00 138 J/kg 7.8 K 0 % 0 % 0 % 0 m²/s² 0 0 11.22 80
03:00 145 J/kg 8.8 K 0 % 0 % 0 % 0 m²/s² 0 0 12.01 80
04:00 164 J/kg 9.0 K 0 % 0 % 0 % 0 m²/s² 0 0 11.49 80
05:00 126 J/kg 10.0 K 0 % 0 % 0 % 0 m²/s² 0 0 12.49 80
06:00 119 J/kg 10.7 K 0 % 0 % 0 % 0 m²/s² 0 0 14.09 2
07:00 89 J/kg 11.6 K 0 % 0 % 0 % 0 m²/s² 0 0 15.68 2
08:00 67 J/kg 12.9 K 0 % 0 % 0 % 0 m²/s² 0 0 17.67 3
09:00 61 J/kg 13.7 K 0 % 0 % 0 % 0 m²/s² 0 0 18.86 3
10:00 34 J/kg 14.6 K 0 % 0 % 0 % 0 m²/s² 0 0 20.09 3
11:00 35 J/kg 14.9 K 0 % 0 % 0 % 0 m²/s² 0 0 20.15 2
12:00 35 J/kg 14.7 K 0 % 0 % 0 % 0 m²/s² 0 0 19.59 3
13:00 65 J/kg 14.2 K 0 % 0 % 0 % 0 m²/s² 0 0 18.4 3
14:00 56 J/kg 14.3 K 0 % 0 % 0 % 0 m²/s² 0 0 18.02 3
15:00 48 J/kg 14.2 K 0 % 0 % 0 % 0 m²/s² 0 0 15.97 3
16:00 27 J/kg 14.6 K 0 % 0 % 0 % 0 m²/s² 0 0 15.86 3
17:00 10 J/kg 14.8 K 0 % 0 % 0 % 0 m²/s² 0 0 15.49 3
18:00 12 J/kg 14.7 K 0 % 0 % 0 % 0 m²/s² 0 0 15.3 3
19:00 7 J/kg 14.3 K 0 % 0 % 0 % 0 m²/s² 0 0 14.69 3
20:00 3 J/kg 14.1 K 0 % 0 % 0 % 0 m²/s² 0 0 14.28 61
21:00 0 J/kg 11.6 K 0 % 0 % 0 % 0 m²/s² 0 0 11.81 61
22:00 0 J/kg 9.4 K 0 % 0 % 0 % 0 m²/s² 0 0 9.52 61
23:00 0 J/kg 7.3 K 0 % 0 % 0 % 0 m²/s² 0 0 7.57 61
 07:29     19:17    Daglengte: 11:48 Zondag 26 Sep
00:00 0 J/kg 6.0 K 0 % 0 % 0 % 0 m²/s² 0 0 9.66 61
01:00 0 J/kg 5.8 K 0 % 0 % 0 % 0 m²/s² 0 0 12.31 3
02:00 0 J/kg 5.1 K 0 % 0 % 0 % 0 m²/s² 0 0 12 3
03:00 0 J/kg 4.7 K 0 % 0 % 0 % 0 m²/s² 0 0 8.75 61
04:00 0 J/kg 4.9 K 0 % 0 % 0 % 0 m²/s² 0 0 7.03 3
05:00 0 J/kg 4.1 K 0 % 0 % 0 % 0 m²/s² 0 0 6.05 3
06:00 0 J/kg 4.1 K 0 % 0 % 0 % 0 m²/s² 0 0 6.65 3
07:00 0 J/kg 3.6 K 0 % 0 % 0 % 0 m²/s² 0 0 6.96 3
08:00 0 J/kg 3.7 K 0 % 0 % 0 % 0 m²/s² 0 0 6.91 3
09:00 0 J/kg 3.8 K 0 % 0 % 0 % 0 m²/s² 0 0 6.08 3
10:00 0 J/kg 4.1 K 0 % 0 % 0 % 0 m²/s² 0 0 6.02 3
11:00 0 J/kg 5.2 K 0 % 0 % 0 % 0 m²/s² 0 0 6.43 2
12:00 0 J/kg 6.2 K 0 % 0 % 0 % 0 m²/s² 0 0 7.1 3
13:00 0 J/kg 6.0 K 0 % 0 % 0 % 0 m²/s² 0 0 6.93 1
14:00 0 J/kg 5.9 K 0 % 0 % 0 % 0 m²/s² 0 0 6.8 2
15:00 0 J/kg 5.7 K 0 % 0 % 0 % 0 m²/s² 0 0 6.99 61
16:00 0 J/kg 6.2 K 0 % 0 % 0 % 0 m²/s² 0 0 7.43 61
17:00 0 J/kg 5.9 K 0 % 0 % 0 % 0 m²/s² 0 0 7.04 61
18:00 0 J/kg 5.6 K 0 % 0 % 0 % 0 m²/s² 0 0 6.35 3
19:00 0 J/kg 5.3 K 0 % 0 % 0 % 0 m²/s² 0 0 5.63 3
20:00 0 J/kg 5.1 K 0 % 0 % 0 % 0 m²/s² 0 0 5.85 3
21:00 0 J/kg 5.4 K 0 % 0 % 0 % 0 m²/s² 0 0 6.15 3
22:00 0 J/kg 5.7 K 0 % 0 % 0 % 0 m²/s² 0 0 6.39 3
23:00 0 J/kg 6.1 K 0 % 0 % 0 % 0 m²/s² 0 0 6.79 3
 07:32     19:14    Daglengte: 11:42 Maandag 27 Sep
00:00 0 J/kg 6.7 K 0 % 0 % 0 % 0 m²/s² 0 0 7.63 3
01:00 0 J/kg 6.7 K 0 % 0 % 0 % 0 m²/s² 0 0 7.99 3
02:00 0 J/kg 4.4 K 0 % 0 % 0 % 0 m²/s² 0 0 5.69 1
03:00 0 J/kg 3.6 K 0 % 0 % 0 % 0 m²/s² 0 0 4.44 2
04:00 0 J/kg 4.3 K 0 % 0 % 0 % 0 m²/s² 0 0 4.69 2
05:00 0 J/kg 4.7 K 0 % 0 % 0 % 0 m²/s² 0 0 5.18 3
06:00 0 J/kg 5.3 K 0 % 0 % 0 % 0 m²/s² 0 0 6.14 3
07:00 0 J/kg 5.7 K 0 % 0 % 0 % 0 m²/s² 0 0 6.78 3
08:00 0 J/kg 5.6 K 0 % 0 % 0 % 0 m²/s² 0 0 6.89 2
09:00 0 J/kg 5.5 K 0 % 0 % 0 % 0 m²/s² 0 0 6.67 0
10:00 0 J/kg 6.0 K 0 % 0 % 0 % 0 m²/s² 0 0 6.6 0
11:00 0 J/kg 6.1 K 0 % 0 % 0 % 0 m²/s² 0 0 6.43 0
12:00 0 J/kg 5.1 K 0 % 0 % 0 % 0 m²/s² 0 0 5.28 1
13:00 0 J/kg 4.2 K 0 % 0 % 0 % 0 m²/s² 0 0 4.38 0
Temp Baro Wind Neerslag
  EWN Forecast EWN WRFDA DWD ICON FMI HIRLAM MET Norway GFS
 07:24     19:24    Daglengte: 12:00 Vandaag
14:00 12.5° 987.4 hPa 7.6 m/s 5.0 mm 11.1° 985.8 hPa 10.3 m/s 5.5 mm 10.2° 988.4 hPa 0.6 m/s 4.2 mm 13.0° 987.3 hPa 7.8 m/s 0.0 mm 8.3° 989.5 hPa 5.9 m/s
17:00 12.4° 988.3 hPa 10.0 m/s 5.0 mm 10.9° 986.2 hPa 9.3 m/s 18.6 mm 11.4° 988.8 hPa 8.2 m/s 1.4 mm 12.6° 987.7 hPa 9.8 m/s 0.0 mm 9.7° 989.8 hPa 5.0 m/s
20:00 11.9° 989.5 hPa 9.7 m/s 1.5 mm 10.0° 987.9 hPa 9.8 m/s 20.8 mm 11.2° 989.7 hPa 7.9 m/s 0.6 mm 11.9° 989.3 hPa 9.1 m/s 0.0 mm 10.6° 990.5 hPa 6.7 m/s
23:00 11.4° 992.0 hPa 11.0 m/s 0.0 mm 9.6° 989.3 hPa 10.4 m/s 22.0 mm 11.1° 992.0 hPa 10.1 m/s 0.5 mm 11.5° 992.2 hPa 9.7 m/s 0.0 mm 10.3° 993.5 hPa 7.3 m/s
 07:26     19:20    Daglengte: 11:54 Morgen
02:00 10.9° 996.8 hPa 10.3 m/s 7.2 mm 9.6° 994.1 hPa 10.5 m/s 24.1 mm 9.3° 997.3 hPa 10.0 m/s 2.5 mm 11.2° 996.8 hPa 9.1 m/s 0.0 mm 9.9° 998.6 hPa 10.0 m/s
05:00 10.5° 1001.5 hPa 8.2 m/s 7.2 mm 9.2° 999.0 hPa 8.1 m/s 26.7 mm 8.7° 1002.0 hPa 8.0 m/s 2.8 mm 10.8° 1001.0 hPa 7.7 m/s 0.0 mm 9.3° 1002.8 hPa 8.7 m/s
08:00 9.9° 1004.8 hPa 5.5 m/s 2.1 mm 8.4° 1002.3 hPa 6.5 m/s 28.8 mm 8.2° 1005.4 hPa 5.5 m/s 0.4 mm 10.3° 1004.4 hPa 5.5 m/s 0.0 mm 9.0° 1006.4 hPa 7.7 m/s
11:00 9.7° 1007.2 hPa 5.4 m/s 4.6 mm 8.7° 1005.7 hPa 6.5 m/s 29.7 mm 9.1° 1007.9 hPa 6.4 m/s 0.9 mm 10.3° 1006.8 hPa 5.3 m/s 0.0 mm 9.5° 1008.7 hPa 6.0 m/s
14:00 10.7° 1009.0 hPa 5.4 m/s 0.0 mm 8.9° 1007.9 hPa 6.3 m/s 31.1 mm 10.4° 1009.1 hPa 5.1 m/s 0.0 mm 10.8° 1008.9 hPa 4.3 m/s 0.0 mm 9.9° 1010.3 hPa 4.6 m/s
17:00 11.6° 1010.0 hPa 3.5 m/s 0.0 mm 9.7° 1009.6 hPa 6.5 m/s 31.9 mm 10.6° 1010.1 hPa 1.0 m/s 0.0 mm 12.5° 1009.8 hPa 2.8 m/s 0.0 mm 10.1° 1011.9 hPa 2.5 m/s
20:00 10.9° 1009.9 hPa 2.6 m/s 0.0 mm 9.3° 1009.9 hPa 1.8 m/s 31.9 mm 9.7° 1009.9 hPa 1.6 m/s 0.1 mm 11.3° 1009.9 hPa 3.4 m/s 0.0 mm 9.9° 1012.3 hPa 1.6 m/s
23:00 11.6° 1008.6 hPa 5.3 m/s 5.1 mm 9.6° 1009.2 hPa 2.3 m/s 32.4 mm 9.5° 1009.3 hPa 1.8 m/s 2.4 mm 12.9° 1008.5 hPa 6.3 m/s 0.0 mm 10.1° 1011.5 hPa 3.0 m/s
 07:29     19:17    Daglengte: 11:48 Zondag 26 Sep
02:00 13.4° 1009.0 hPa 2.2 m/s 0.0 mm 11.1° 1009.6 hPa 3.4 m/s 32.9 mm 10.7° 1009.2 hPa 0.9 m/s 0.1 mm 14.1° 1009.0 hPa 6.3 m/s 0.0 mm 10.9° 1011.7 hPa 3.2 m/s
05:00 13.7° 1009.7 hPa 2.3 m/s 0.0 mm 11.4° 1009.8 hPa 5.7 m/s 32.9 mm 11.2° 1009.7 hPa 0.9 m/s 0.1 mm 15.8° 1009.7 hPa 5.5 m/s 0.0 mm 10.7° 1011.7 hPa 2.9 m/s
08:00 13.4° 1010.0 hPa 2.8 m/s 0.0 mm 10.6° 1010.4 hPa 2.5 m/s 32.9 mm 11.8° 1010.2 hPa 0.6 m/s 0.0 mm 16.2° 1010.0 hPa 4.5 m/s 0.0 mm 11.0° 1011.6 hPa 1.7 m/s
11:00 14.9° 1011.1 hPa 1.9 m/s 0.0 mm 16.3° 1011.5 hPa 3.5 m/s 32.9 mm 14.5° 1011.1 hPa 0.7 m/s 0.0 mm 13.3° 1012.2 hPa 1.2 m/s
14:00 17.2° 1010.5 hPa 2.0 m/s 0.0 mm 19.4° 1011.3 hPa 3.1 m/s 32.9 mm 17.2° 1010.4 hPa 0.4 m/s 0.0 mm 15.8° 1011.8 hPa 1.3 m/s
17:00 15.0° 1010.4 hPa 2.6 m/s 7.7 mm 16.9° 1011.7 hPa 3.0 m/s 32.9 mm 14.8° 1010.2 hPa 0.6 m/s 0.6 mm 14.6° 1012.4 hPa 2.1 m/s
20:00 13.3° 1010.9 hPa 0.7 m/s 0.0 mm 13.3° 1011.8 hPa 2.8 m/s 32.9 mm 13.6° 1010.4 hPa 0.3 m/s 0.0 mm 12.1° 1012.8 hPa 1.1 m/s
23:00 13.7° 1010.8 hPa 1.5 m/s 0.0 mm 13.2° 1011.8 hPa 3.2 m/s 32.9 mm 14.2° 1010.3 hPa 0.9 m/s 0.1 mm 12.3° 1012.6 hPa 1.8 m/s
 07:32     19:14    Daglengte: 11:42 Maandag 27 Sep
02:00 14.2° 1010.6 hPa 3.3 m/s 0.0 mm 13.7° 1011.5 hPa 3.1 m/s 32.9 mm 13.9° 1009.8 hPa 1.1 m/s 0.0 mm 11.9° 1012.3 hPa 2.3 m/s
05:00 15.1° 1010.0 hPa 4.4 m/s 0.0 mm 15.0° 1011.3 hPa 4.5 m/s 32.9 mm 14.1° 1009.3 hPa 1.4 m/s 0.0 mm 11.7° 1011.7 hPa 2.9 m/s
08:00 15.6° 1009.3 hPa 5.0 m/s 0.0 mm 15.7° 1009.8 hPa 5.3 m/s 32.9 mm 14.2° 1008.8 hPa 1.8 m/s 0.0 mm 11.5° 1010.7 hPa 3.6 m/s
11:00 18.2° 1008.2 hPa 3.3 m/s 0.0 mm 19.3° 1008.6 hPa 4.9 m/s 32.9 mm 17.9° 1008.0 hPa 2.9 m/s 0.0 mm 14.3° 1010.0 hPa 3.8 m/s
14:00 19.3° 1007.0 hPa 3.4 m/s 0.0 mm 18.0° 1007.2 hPa 3.4 m/s 32.9 mm 19.6° 1007.0 hPa 3.4 m/s 0.0 mm 16.8° 1008.5 hPa 4.6 m/s
17:00 15.6° 1007.3 hPa 5.4 m/s 12.7 mm 15.6° 1007.3 hPa 5.4 m/s 12.7 mm
20:00 13.4° 1007.1 hPa 5.7 m/s 12.7 mm 13.4° 1007.1 hPa 5.7 m/s 12.7 mm
23:00 11.8° 1010.7 hPa 3.5 m/s 12.8 mm 11.8° 1010.7 hPa 3.5 m/s 12.8 mm
 07:35     19:10    Daglengte: 11:35 Dinsdag 28 Sep
02:00 11.7° 1014.2 hPa 1.4 m/s 16.4 mm 11.7° 1014.2 hPa 1.4 m/s 16.4 mm
05:00 10.8° 1017.1 hPa 0.9 m/s 17.9 mm 10.8° 1017.1 hPa 0.9 m/s 17.9 mm
08:00 10.2° 1019.0 hPa 2.5 m/s 17.9 mm 10.2° 1019.0 hPa 2.5 m/s 17.9 mm
11:00 12.7° 1021.0 hPa 2.2 m/s 17.9 mm 12.7° 1021.0 hPa 2.2 m/s 17.9 mm
14:00 14.5° 1021.6 hPa 1.3 m/s 17.9 mm 14.5° 1021.6 hPa 1.3 m/s 17.9 mm
17:00 14.4° 1021.6 hPa 1.7 m/s 17.9 mm 14.4° 1021.6 hPa 1.7 m/s 17.9 mm
20:00 11.9° 1021.4 hPa 1.4 m/s 17.9 mm 11.9° 1021.4 hPa 1.4 m/s 17.9 mm
23:00 11.0° 1020.9 hPa 1.5 m/s 17.9 mm 11.0° 1020.9 hPa 1.5 m/s 17.9 mm
 07:37     19:07    Daglengte: 11:30 Woensdag 29 Sep
02:00 10.6° 1019.4 hPa 2.3 m/s 17.9 mm 10.6° 1019.4 hPa 2.3 m/s 17.9 mm
05:00 10.0° 1017.9 hPa 2.7 m/s 17.9 mm 10.0° 1017.9 hPa 2.7 m/s 17.9 mm
08:00 9.4° 1017.4 hPa 3.1 m/s 17.9 mm 9.4° 1017.4 hPa 3.1 m/s 17.9 mm
11:00 12.0° 1016.9 hPa 2.6 m/s 17.9 mm 12.0° 1016.9 hPa 2.6 m/s 17.9 mm
14:00 14.2° 1016.3 hPa 1.2 m/s 17.9 mm 14.2° 1016.3 hPa 1.2 m/s 17.9 mm
17:00 13.9° 1015.4 hPa 2.2 m/s 17.9 mm 13.9° 1015.4 hPa 2.2 m/s 17.9 mm
20:00 12.0° 1014.9 hPa 2.4 m/s 17.9 mm 12.0° 1014.9 hPa 2.4 m/s 17.9 mm
23:00 11.7° 1013.9 hPa 1.3 m/s 17.9 mm 11.7° 1013.9 hPa 1.3 m/s 17.9 mm
 07:40     19:04    Daglengte: 11:24 Donderdag 30 Sep
02:00 11.5° 1012.1 hPa 1.9 m/s 17.9 mm 11.5° 1012.1 hPa 1.9 m/s 17.9 mm
05:00 11.3° 1010.8 hPa 2.4 m/s 17.9 mm 11.3° 1010.8 hPa 2.4 m/s 17.9 mm
08:00 11.1° 1010.5 hPa 2.0 m/s 17.9 mm 11.1° 1010.5 hPa 2.0 m/s 17.9 mm
11:00 12.3° 1011.8 hPa 1.2 m/s 17.9 mm 12.3° 1011.8 hPa 1.2 m/s 17.9 mm
14:00 12.2° 1012.9 hPa 3.2 m/s 17.9 mm 12.2° 1012.9 hPa 3.2 m/s 17.9 mm
17:00 10.2° 1013.4 hPa 2.6 m/s 18.1 mm 10.2° 1013.4 hPa 2.6 m/s 18.1 mm
20:00 9.4° 1013.3 hPa 0.3 m/s 18.2 mm 9.4° 1013.3 hPa 0.3 m/s 18.2 mm
23:00 8.7° 1012.7 hPa 1.9 m/s 18.3 mm 8.7° 1012.7 hPa 1.9 m/s 18.3 mm
 07:43     19:00    Daglengte: 11:17 Vrijdag 01 Okt
02:00 8.4° 1011.4 hPa 1.5 m/s 18.3 mm 8.4° 1011.4 hPa 1.5 m/s 18.3 mm
05:00 8.3° 1010.4 hPa 1.8 m/s 18.3 mm 8.3° 1010.4 hPa 1.8 m/s 18.3 mm
08:00 8.1° 1009.9 hPa 1.9 m/s 18.3 mm 8.1° 1009.9 hPa 1.9 m/s 18.3 mm
11:00 10.4° 1009.8 hPa 0.5 m/s 18.3 mm 10.4° 1009.8 hPa 0.5 m/s 18.3 mm
14:00 11.2° 1009.3 hPa 1.4 m/s 18.3 mm 11.2° 1009.3 hPa 1.4 m/s 18.3 mm
20:00 8.9° 1008.4 hPa 1.1 m/s 18.3 mm 8.9° 1008.4 hPa 1.1 m/s 18.3 mm
 07:45     18:57    Daglengte: 11:12 Zaterdag 02 Okt
02:00 8.3° 1007.3 hPa 0.8 m/s 18.3 mm 8.3° 1007.3 hPa 0.8 m/s 18.3 mm
08:00 7.6° 1006.1 hPa 1.7 m/s 18.3 mm 7.6° 1006.1 hPa 1.7 m/s 18.3 mm
14:00 11.5° 1005.9 hPa 0.7 m/s 18.3 mm 11.5° 1005.9 hPa 0.7 m/s 18.3 mm
20:00 9.3° 1004.6 hPa 2.3 m/s 18.3 mm 9.3° 1004.6 hPa 2.3 m/s 18.3 mm
 07:48     18:54    Daglengte: 11:06 Zondag 03 Okt
02:00 9.3° 1003.7 hPa 2.9 m/s 18.3 mm 9.3° 1003.7 hPa 2.9 m/s 18.3 mm
08:00 8.9° 998.2 hPa 3.7 m/s 18.3 mm 8.9° 998.2 hPa 3.7 m/s 18.3 mm
14:00 9.6° 986.9 hPa 4.3 m/s 20.3 mm 9.6° 986.9 hPa 4.3 m/s 20.3 mm
20:00 10.5° 990.2 hPa 4.0 m/s 20.6 mm 10.5° 990.2 hPa 4.0 m/s 20.6 mm
 07:51     18:50    Daglengte: 10:59 Maandag 04 Okt
02:00 9.1° 994.8 hPa 6.8 m/s 21.2 mm 9.1° 994.8 hPa 6.8 m/s 21.2 mm
08:00 9.2° 1010.2 hPa 2.5 m/s 1.1 mm
14:00 11.6° 1011.2 hPa 1.3 m/s 0.8 mm
20:00 10.1° 1012.0 hPa 1.7 m/s 0.9 mm
 07:54     18:47    Daglengte: 10:53 Dinsdag 05 Okt
02:00 9.6° 1012.7 hPa 2.6 m/s 1.1 mm
08:00 9.4° 1013.3 hPa 2.6 m/s 1.1 mm
14:00 11.5° 1014.5 hPa 2.6 m/s 1.1 mm
20:00 9.9° 1015.3 hPa 2.2 m/s 1.4 mm
 07:56     18:44    Daglengte: 10:48 Woensdag 06 Okt
02:00 9.3° 1015.6 hPa 2.5 m/s 1.6 mm
08:00 9.1° 1015.2 hPa 2.6 m/s 1.3 mm
14:00 11.5° 1014.5 hPa 2.1 m/s 1.3 mm
20:00 10.1° 1013.8 hPa 2.3 m/s 0.7 mm
 07:59     18:40    Daglengte: 10:41 Donderdag 07 Okt
02:00 9.6° 1012.3 hPa 2.5 m/s 1.5 mm
08:00 9.4° 1010.8 hPa 2.4 m/s 1.8 mm
14:00 10.8° 1010.4 hPa 2.7 m/s 2.1 mm
20:00 9.4° 1010.6 hPa 1.7 m/s 2.0 mm
 08:02     18:37    Daglengte: 10:35 Vrijdag 08 Okt
02:00 8.7° 1011.0 hPa 2.1 m/s 1.6 mm
08:00 8.5° 1010.3 hPa 2.3 m/s 2.1 mm
14:00 10.1° 1010.9 hPa 2.7 m/s 1.3 mm
20:00 8.6° 1011.6 hPa 1.2 m/s 2.2 mm
 08:05     18:34    Daglengte: 10:29 Zaterdag 09 Okt
02:00 8.1° 1011.9 hPa 1.5 m/s 1.2 mm
08:00 7.8° 1011.4 hPa 1.7 m/s 0.7 mm
FMI Hirlam - 7.5 km EWN WRFDA - 12 km DWD ICON - 7 km GFS - 25 km Basiskaart






























































Updatetijd (Europe/Amsterdam) Resolutie Lengte Stap
FMI Hirlam 07:00, 13:00, 19:00, 01:00 7.5 km 49h 1h
EWN WRFDA 10:00, 16:00, 22:00, 04:00 12 km 73h 1h
DWD ICON 11:45, 17:45, 23:45, 05:45 7 km 75h 1h
GFS 08:15, 14:15, 20:15, 02:15 25 km 237h 3h
30+ mm
25-30 mm
20-25 mm
15-20 mm
10-15 mm
6-10 mm
4-6 mm
2-4 mm
1-2 mm
0.5-1 mm
0.2-0.5 mm
0.1-0.2 mm
30+ mm
25-30 mm
20-25 mm
15-20 mm
10-15 mm
6-10 mm
4-6 mm
2-4 mm
1-2 mm
0.5-1 mm
0.2-0.5 mm
0.1-0.2 mm
Sneeuwval
Natte sneeuw
Hagel
Vorst
30+ mm
25-30 mm
20-25 mm
15-20 mm
10-15 mm
6-10 mm
4-6 mm
2-4 mm
1-2 mm
0.5-1 mm
0.2-0.5 mm
0.1-0.2 mm
Sneeuwval
Natte sneeuw
Hagel
Vorst
Onweer
50 mm
40 mm
30 mm
26 mm
22 mm
18 mm
14 mm
10 mm
9 mm
8 mm
7 mm
6 mm
5 mm
4.5 mm
4 mm
3.5 mm
3 mm
2.5 mm
2 mm
1.5 mm
1 mm
0.8 mm
0.6 mm
0.4 mm
0.2 mm
0.05 mm
35°
30°
25°
20°
15°
10°
-5°
-10°
-15°
-20°
-25°
-30°
-35°
33> m/s
29 m/s
25 m/s
21 m/s
17 m/s
14 m/s
11 m/s
8 m/s
5 m/s
3 m/s
0 m/s
2600 J/kg
2400 J/kg
2200 J/kg
2000 J/kg
1800 J/kg
1600 J/kg
1400 J/kg
1200 J/kg
1000 J/kg
800 J/kg
600 J/kg
400 J/kg
200 J/kg
70 dBZ
65 dBZ
60 dBZ
55 dBZ
50 dBZ
45 dBZ
40 dBZ
35 dBZ
30 dBZ
25 dBZ
20 dBZ
15 dBZ
10 dBZ
5 dBZ
-1 K
-2 K
-3 K
-4 K
-5 K
-6 K
-7 K
-8 K
-9 K
950 m²/s²
900 m²/s²
850 m²/s²
800 m²/s²
750 m²/s²
700 m²/s²
650 m²/s²
600 m²/s²
550 m²/s²
500 m²/s²
450 m²/s²
400 m²/s²
350 m²/s²
300 m²/s²
250 m²/s²
200 m²/s²
150 m²/s²
100 m²/s²
46 m/s
44 m/s
42 m/s
40 m/s
38 m/s
36 m/s
34 m/s
32 m/s
30 m/s
28 m/s
26 m/s
24 m/s
22 m/s
20 m/s
16 m/s
12 m/s
8 m/s
4 m/s
30 m/s
28 m/s
26 m/s
24 m/s
22 m/s
20 m/s
18 m/s
16 m/s
14 m/s
12 m/s
10 m/s
8 m/s
6 m/s
4 m/s
2 m/s
3.0
2.8
2.6
2.4
2.2
2.0
1.8
1.6
1.4
1.2
1.0
0.8
0.6
0.4
0.2
15
14
13
12
11
10
9
8
7
6
5
4
3
2
1
90%
80%
70%
60%
50%
40%
30%
20%
10%
42
40
38
36
34
32
30
28
26
24
22
20
18
16
14
12
90+ cm
80-90 cm
70-80 cm
60-70 cm
50-60 cm
40-50 cm
30-40 cm
20-30 cm
10-20 cm
1-10 cm
Sneeuwval
Natte sneeuw
Regen
>120 mm
115 mm
110 mm
105 mm
100 mm
95 mm
90 mm
85 mm
80 mm
75 mm
70 mm
65 mm
60 mm
55 mm
50 mm
45 mm
45 mm
40 mm
35 mm
30 mm
25 mm
20 mm
15 mm
10 mm
5 mm
0.1 mm
960 hPa
880 hPa
800 hPa
720 hPa
640 hPa
560 hPa
584 gpdm
568 gpdm
552 gpdm
536 gpdm
520 gpdm
504 gpdm
488 gpdm
Extreem zwaar Noodweer Kans op onweer
15% 15% 5% 50% 15%

Dag




Kaart






35°
30°
25°
20°
15°